RCKHZSHC

Guest
Details From RCKH - Kaohsiung Intl
To ZSHC - Xiaoshan
Flight Number -
Tags Generated
Created
Modified
Stats Distance 461 nm / 854 km
Max Altitude 0 ft / 0 m
Waypoints 4
Social Downloads 1
Likes 0
Share VATSIM

Download

Looking for another format? Having issues loading an existing format? Contact us
Advertisement - Login to hide

Notes

Generated

Route

RCKH HIPPO DSH ZSHC

ID Type Via Altitude Latitude Longitude Leg Dist Tot Dist Heading (true) Name
O RCKH APT - 0 ft / 0 m 22.57757˚ 120.33471˚ - 0 nm - -
HIPPO FIX - 0 ft / 0 m 26.14389˚ 120.23444˚ 214 nm 214 nm 359° / 359° -
DSH VOR - 0 ft / 0 m 30.14833˚ 120.49833˚ 240 nm 455 nm 3° / 3° DANGSHAN VOR-DME
O ZSHC APT - 0 ft / 0 m 30.22212˚ 120.41780˚ 6 nm 461 nm 317° / 317° -

Altitude Profile

Advertisement - Login to hide

Weather


0- 5 10 15 20 25 30 35+ Temperature / ° C

Clouds and Precipitation
Forecast for 2018-05-22 12:00 UTC. Updated 3 hours ago

Ground ~20,000 ft ~40,000 ft Winds

RCKH

Details ICAO RCKH (KHH)
Name KAOHSIUNG INTL
Region Republic of China (Taiwan)
Timezone Asia/Taipei (UTC+8.0)
Stats Elevation 31 ft / 9 m (AMSL)
Location 22.577093° 120.350006°
Runways 1
Magnetic Variation 3.818° W

METAR

RCKH 221330Z 30003KT 260V350 9999 FEW016 SCT054 29/22 Q1011 NOSIG RMK A2986

Decode

TAF

TAF RCKH 221101Z 2212/2318 29005KT 9999 FEW015 BKN032 BECMG 2213/2215 34005KT BECMG 2300/2302 29010KT TEMPO 2305/2311 FEW010 BKN025 BKN040 BECMG 2308/2310 30005KT

Decode

Departure Runways

ID Width Length Bearing (true) Bearing (mag) Surface Threshold Offset Overrun Length
09 197 ft / 60 m 10,316 ft / 3,144 m 91.92° 95.74° Concrete 525 ft / 160 m 197 ft / 60 m
27 197 ft / 60 m 10,316 ft / 3,144 m 271.93° 275.75° Concrete 1,477 ft / 450 m 197 ft / 60 m

ZSHC

Details ICAO ZSHC (HGH)
Name XIAOSHAN
Region China
Timezone Asia/Shanghai (UTC+8.0)
Stats Elevation 23 ft / 7 m (AMSL)
Location 30.229504° 120.434453°
Runways 1
Magnetic Variation 5.566° W

METAR

ZSHC 221400Z 32005MPS 290V350 9999 SCT020 BKN040 20/18 Q1013 NOSIG

Decode

TAF

Not found

Destination Runways

ID Width Length Bearing (true) Bearing (mag) Surface Threshold Offset Overrun Length
07 148 ft / 45 m 11,803 ft / 3,598 m 62.82° 68.39° Concrete 0 ft / 0 m 200 ft / 61 m
25 148 ft / 45 m 11,803 ft / 3,598 m 242.84° 248.41° Concrete 0 ft / 0 m 200 ft / 61 m

Approach Navaids

Runway Type Ident Frequency Range Bearing (true) Bearing (mag) Slope Elevation
07 Localiser IXX 109.90 MHz 18 nm / 33 km 61.92° 67.48° - 23 ft / 7 m (AMSL)
07 Glidescope IXX 109.90 MHz 10 nm / 19 km 62.83° 68.40° 3.00° 23 ft / 7 m (AMSL)
25 Localiser IDD 108.50 MHz 18 nm / 33 km 242.20° 247.77° - 23 ft / 7 m (AMSL)
25 Glidescope IDD 108.50 MHz 10 nm / 19 km 242.83° 248.40° 3.00° 23 ft / 7 m (AMSL)